COSMOS 2475 (743)

Last updated on Mon Sep 21 2026 00:03:22 GMT+0000 (Coordinated Universal Time)

1 37869U 11064C 26262.58335014 .00000031 00000+0 00000+0 0 9994 2 37869 65.3423 69.7899 0024728 245.7583 111.5105 2.13101769115778
UTC large
Height (km)
Speed (km/s)
/
Latitude / Longitude
Inclination (degrees)
Orbital Period (minutes)
Azimuth
Elevation
Range (km)
Doppler Factor

Next 0 passes for location: London (51.5072 / 0.1276)

No passes found over London.
COSMOS 2475 (743)